World > North America > United States > Ohio > Taylortown

Hourly Taylortown, OH Regional Weather

Feedback E-mail the Weather

Quick WX

Taylortown, OH Weather Maps

°F °C°F °C
Taylortown Weather Map
UTC Time: 8/20/2022, 02:31
Your Time:

Taylortown, OH Regional Weather

Expires:202208200300;;345355
ASUS41 KCLE 200210
RWRCLE
OHIO REGIONAL WEATHER ROUNDUP
NATIONAL WEATHER SERVICE CLEVELAND, OH
1000 PM EDT FRI AUG 19 2022

NOTE: "FAIR" INDICATES FEW OR NO CLOUDS BELOW 12,000 FEET WITH NO
SIGNIFICANT WEATHER AND/OR OBSTRUCTIONS TO VISIBILITY.


OHZ009>014-019>023-028>033-038-089-200300-
   NORTHEAST OHIO
  
CITY           SKY/WX    TMP DP  RH WIND       PRES   REMARKS
CLE-HOPKINS    PTCLDY    76  61  59 E6        30.04R                  
CLE-LAKEFRONT  CLEAR     77  61  57 E5        30.04R                  
CUY CO. ARPT   CLEAR     72  63  73 CALM      30.06R                  
LORAIN-ELYRIA  CLEAR     69  63  81 CALM      30.06R                  
ASHTABULA      CLEAR     67  63  87 CALM      30.07R                  
AKRON-CANTON   PTCLDY    75  57  53 S3        30.06R                  
WOOSTER        CLEAR     64  63  96 CALM      30.07R                  
MANSFIELD      MOCLDY    70  61  73 SE3       30.07R                  
YOUNGSTOWN     PTCLDY    65  58  78 S3        30.07R                  
$$


SKY/WX - Weather  TMP - Temperature  DP - Dew Point  RH - Humidity
WIND - Wind Direction/Speed PRES - Barometric Pressure VSB - Visibility
WCI - Wind Chill Index E13G22 Wind - East Wind 13 mph/Gusts of 22 mph

Trending Headlines

Taylortown Radar Loop



Taylortown Quick Facts


National Two Day Weather Forecast


E-mail the Taylortown Weather Forecast

Voice your opinion or tell us about page issues...